Back to catalog

CZ-6A DEB

AliveSSO
NORAD 56259·DEBRIS·🇨🇳 China

Launched Nov 11, 2022 from Taiyuan Satellite Launch Center

Loading…

Next Passes (next 24 hours)

TLE

FreshSource: Space-Track

Epoch: Sep 14, 2026, 06:27 UTC

1 56259U 22151ACB 26257.26895997  .00001721  00000-0  85388-3 0  9991
2 56259  98.8324 260.0662 0049512  78.7945 281.8790 14.17852695185722

Track CZ-6A DEB in real time with AllMySat

Download on the App Store